When you browse on this site, cookies collect data to enhance your experience and personalize the content and advertising you see.
Visit our Privacy Policy to learn more. By continuing to use the site, you agree to this use of cookies and data.
  • en France
  • Liste des pays
  • À 7 jours
  • Température de l'eau
  • Carte météo
  • Widgets météo
  • user-avatar
    Se connecter

    Météo par heure à Rangpur

    Ce jour, 21 Février, Vendredi

    Heure Température Précipitation Vent Pression Humidité
    00:00 +23°C° 0 mm 2 m/s 760 mmHg 37%
    01:00 +21°C° 0 mm 2 m/s 760 mmHg 39%
    02:00 +21°C° 0 mm 2 m/s 760 mmHg 41%
    03:00 +20°C° 0 mm 2 m/s 759 mmHg 44%
    04:00 +20°C° 0 mm 2 m/s 759 mmHg 52%
    05:00 +19°C° 0 mm 2 m/s 759 mmHg 59%
    06:00 +19°C° 0 mm 3 m/s 759 mmHg 67%
    07:00 +21°C° 0 mm 3 m/s 760 mmHg 63%
    08:00 +23°C° 0 mm 4 m/s 761 mmHg 59%
    09:00 +25°C° 0 mm 4 m/s 762 mmHg 55%
    10:00 +27°C° 0 mm 4 m/s 762 mmHg 47%
    11:00 +29°C° 0 mm 4 m/s 761 mmHg 39%
    12:00 +31°C° 0 mm 3 m/s 761 mmHg 30%
    19:00 +28°C° 0 mm 1 m/s 760 mmHg 33%
    20:00 +27°C° 0 mm 1 m/s 760 mmHg 35%
    21:00 +26°C° 0 mm 1 m/s 761 mmHg 37%
    22:00 +26°C° 0 mm 1 m/s 761 mmHg 38%
    23:00 +25°C° 0 mm 1 m/s 760 mmHg 40%

    Demain, 22 Février, Samedi

    Heure Température Précipitation Vent Pression Humidité
    00:00 +25°C° 0 mm 2 m/s 760 mmHg 41%
    01:00 +24°C° 0 mm 2 m/s 760 mmHg 43%
    02:00 +24°C° 0 mm 2 m/s 760 mmHg 45%
    03:00 +23°C° 0 mm 2 m/s 760 mmHg 46%
    04:00 +23°C° 0 mm 2 m/s 760 mmHg 48%
    05:00 +23°C° 0 mm 2 m/s 760 mmHg 50%
    06:00 +21°C° 0 mm 3 m/s 760 mmHg 52%
    07:00 +22°C° 0 mm 3 m/s 761 mmHg 50%
    08:00 +25°C° 0 mm 3 m/s 761 mmHg 47%
    09:00 +26°C° 0 mm 4 m/s 762 mmHg 44%
    10:00 +28°C° 0 mm 4 m/s 762 mmHg 39%
    11:00 +30°C° 0 mm 4 m/s 761 mmHg 33%
    12:00 +33°C° 0 mm 4 m/s 761 mmHg 28%
    13:00 +34°C° 0 mm 4 m/s 760 mmHg 26%
    14:00 +34°C° 0 mm 3 m/s 759 mmHg 25%
    15:00 +34°C° 0 mm 2 m/s 758 mmHg 23%
    16:00 +32°C° 0 mm 2 m/s 758 mmHg 25%
    17:00 +31°C° 0 mm 2 m/s 758 mmHg 27%
    18:00 +30°C° 0 mm 1 m/s 758 mmHg 29%
    19:00 +29°C° 0 mm 1 m/s 759 mmHg 31%
    20:00 +28°C° 0 mm 2 m/s 759 mmHg 33%
    21:00 +27°C° 0 mm 2 m/s 760 mmHg 35%
    22:00 +26°C° 0 mm 2 m/s 760 mmHg 36%
    23:00 +25°C° 0 mm 2 m/s 760 mmHg 37%

    Après-demain, 23 Février, Dimanche

    Heure Température Précipitation Vent Pression Humidité
    00:00 +25°C° 0 mm 2 m/s 760 mmHg 39%
    01:00 +24°C° 0 mm 2 m/s 759 mmHg 40%
    02:00 +24°C° 0 mm 2 m/s 759 mmHg 42%
    03:00 +24°C° 0 mm 2 m/s 759 mmHg 43%
    04:00 +23°C° 0 mm 2 m/s 759 mmHg 44%
    05:00 +23°C° 0 mm 2 m/s 759 mmHg 45%
    06:00 +23°C° 0 mm 2 m/s 759 mmHg 46%
    07:00 +24°C° 0 mm 2 m/s 759 mmHg 44%
    08:00 +25°C° 0 mm 2 m/s 760 mmHg 42%
    09:00 +27°C° 0 mm 2 m/s 761 mmHg 39%
    10:00 +28°C° 0 mm 2 m/s 760 mmHg 35%
    11:00 +30°C° 0 mm 2 m/s 760 mmHg 31%
    12:00 +33°C° 0 mm 3 m/s 760 mmHg 27%
    13:00 +34°C° 0 mm 2 m/s 759 mmHg 26%
    14:00 +34°C° 0 mm 1 m/s 758 mmHg 24%
    15:00 +32°C° 0 mm 0 m/s 757 mmHg 22%
    16:00 +31°C° 0 mm 0 m/s 757 mmHg 24%
    17:00 +32°C° 0 mm 1 m/s 756 mmHg 26%
    18:00 +30°C° 0 mm 1 m/s 756 mmHg 28%
    19:00 +29°C° 0 mm 1 m/s 756 mmHg 29%
    20:00 +28°C° 0 mm 1 m/s 757 mmHg 31%
    21:00 +27°C° 0 mm 1 m/s 757 mmHg 33%
    22:00 +26°C° 0 mm 1 m/s 757 mmHg 34%
    23:00 +26°C° 0 mm 1 m/s 757 mmHg 36%

    24 Février, Lundi

    Heure Température Précipitation Vent Pression Humidité
    00:00 +25°C° 0 mm 1 m/s 757 mmHg 37%
    01:00 +25°C° 0.1 mm 1 m/s 757 mmHg 39%
    02:00 +24°C° 0.1 mm 1 m/s 757 mmHg 40%
    03:00 +24°C° 0.1 mm 2 m/s 756 mmHg 42%
    04:00 +24°C° 0.4 mm 1 m/s 756 mmHg 45%
    05:00 +23°C° 0.4 mm 1 m/s 756 mmHg 49%
    06:00 +21°C° 0.4 mm 0 m/s 756 mmHg 52%
    07:00 +23°C° 0.4 mm 1 m/s 757 mmHg 50%
    08:00 +24°C° 0.4 mm 1 m/s 758 mmHg 49%
    09:00 +25°C° 0.4 mm 2 m/s 758 mmHg 47%
    10:00 +26°C° 0.1 mm 1 m/s 758 mmHg 43%
    11:00 +28°C° 0.1 mm 1 m/s 758 mmHg 39%
    12:00 +30°C° 0.1 mm 1 m/s 758 mmHg 34%
    13:00 +31°C° 0 mm 1 m/s 757 mmHg 32%
    14:00 +32°C° 0 mm 2 m/s 756 mmHg 30%
    15:00 +34°C° 0 mm 2 m/s 755 mmHg 27%
    16:00 +31°C° 0 mm 3 m/s 755 mmHg 32%
    17:00 +30°C° 0 mm 3 m/s 755 mmHg 36%
    18:00 +28°C° 0 mm 4 m/s 755 mmHg 41%
    19:00 +27°C° 0 mm 3 m/s 755 mmHg 41%
    20:00 +27°C° 0 mm 2 m/s 756 mmHg 42%
    21:00 +26°C° 0 mm 2 m/s 756 mmHg 42%
    22:00 +25°C° 0.4 mm 2 m/s 756 mmHg 47%
    23:00 +24°C° 0.4 mm 2 m/s 756 mmHg 51%

    25 Février, Mardi

    Heure Température Précipitation Vent Pression Humidité
    00:00 +22°C° 0.4 mm 3 m/s 756 mmHg 56%
    01:00 +22°C° 0.4 mm 3 m/s 756 mmHg 59%
    02:00 +22°C° 0.4 mm 3 m/s 756 mmHg 61%
    03:00 +21°C° 0.4 mm 2 m/s 755 mmHg 64%
    04:00 +21°C° 0.5 mm 2 m/s 755 mmHg 65%
    05:00 +21°C° 0.5 mm 2 m/s 755 mmHg 67%
    06:00 +21°C° 0.5 mm 2 m/s 756 mmHg 68%
    07:00 +21°C° 0.7 mm 2 m/s 756 mmHg 65%
    08:00 +22°C° 0.7 mm 3 m/s 757 mmHg 62%
    09:00 +24°C° 0.7 mm 3 m/s 758 mmHg 60%
    10:00 +24°C° 0.1 mm 3 m/s 758 mmHg 58%
    11:00 +25°C° 0.1 mm 3 m/s 757 mmHg 56%
    12:00 +25°C° 0.1 mm 4 m/s 757 mmHg 54%
    13:00 +25°C° 0.1 mm 4 m/s 757 mmHg 56%
    14:00 +25°C° 0.1 mm 4 m/s 756 mmHg 58%
    15:00 +23°C° 0.1 mm 5 m/s 756 mmHg 60%
    16:00 +23°C° 0.1 mm 4 m/s 756 mmHg 63%
    17:00 +22°C° 0.1 mm 4 m/s 755 mmHg 66%
    18:00 +21°C° 0.1 mm 4 m/s 755 mmHg 69%
    19:00 +21°C° 0.1 mm 4 m/s 756 mmHg 69%
    20:00 +21°C° 0.1 mm 4 m/s 756 mmHg 69%
    21:00 +21°C° 0.1 mm 4 m/s 757 mmHg 69%
    22:00 +21°C° 0.1 mm 4 m/s 757 mmHg 71%
    23:00 +20°C° 0.1 mm 4 m/s 757 mmHg 73%

    26 Février, Mercredi

    Heure Température Précipitation Vent Pression Humidité
    00:00 +20°C° 0.1 mm 5 m/s 757 mmHg 75%
    01:00 +20°C° 0.1 mm 4 m/s 757 mmHg 77%
    02:00 +19°C° 0.1 mm 3 m/s 756 mmHg 79%
    03:00 +19°C° 0.1 mm 2 m/s 756 mmHg 81%
    04:00 +19°C° 0 mm 3 m/s 756 mmHg 81%
    05:00 +19°C° 0 mm 3 m/s 756 mmHg 82%
    06:00 +19°C° 0 mm 4 m/s 756 mmHg 82%
    07:00 +19°C° 0.2 mm 4 m/s 757 mmHg 79%
    08:00 +20°C° 0.2 mm 4 m/s 758 mmHg 76%
    09:00 +20°C° 0.2 mm 5 m/s 758 mmHg 74%
    10:00 +21°C° 0.3 mm 4 m/s 758 mmHg 73%
    11:00 +21°C° 0.3 mm 4 m/s 758 mmHg 73%
    12:00 +22°C° 0.3 mm 4 m/s 758 mmHg 72%
    13:00 +23°C° 0.5 mm 4 m/s 757 mmHg 65%
    14:00 +25°C° 0.5 mm 4 m/s 756 mmHg 59%
    15:00 +27°C° 0.5 mm 5 m/s 756 mmHg 52%
    16:00 +26°C° 0 mm 4 m/s 756 mmHg 55%
    17:00 +25°C° 0 mm 4 m/s 756 mmHg 59%
    18:00 +23°C° 0 mm 4 m/s 755 mmHg 62%
    19:00 +22°C° 0 mm 3 m/s 756 mmHg 66%
    20:00 +22°C° 0 mm 3 m/s 756 mmHg 70%
    21:00 +21°C° 0 mm 2 m/s 756 mmHg 74%
    22:00 +20°C° 0 mm 2 m/s 756 mmHg 75%
    23:00 +20°C° 0 mm 2 m/s 756 mmHg 76%
    Voir plus